Volver al catálogo

THORAD AGENA D DEB

ActivoSSO
NORAD 4772·DEBRIS·🇺🇸 United States

Lanzado Apr 8, 1970 desde Vandenberg Space Force Base

Loading…

Próximos Pases (próximas 24 horas)

TLE

ActualizadoSource: Space-Track

Época: Sep 14, 2026, 05:46 UTC

1 04772U 70025DS  26257.24044190  .00000231  00000-0  55413-3 0  9997
2 04772  99.7722  47.8982 0180406  77.6673  44.0376 13.27071021713987

Sigue THORAD AGENA D DEB en tiempo real con AllMySat

Download on the App Store